Location: Bédeille
(43.0872°N, 1.1041°E)
Time: 03:03:40
(UTC+00:00)

Cosmos 1709 Rocket - Pass Details

Date: 03 February 2023
Orbit: 948 x 1001 km, 82.9° (Epoch: 27 March)

Event Time Altitude Azimuth Distance (km) Brightness Sun altitude
Rises 19:33:19 0° 352° (N) 3,653 7.1 -26.4°
Reaches altitude 10° 19:35:50 10° 353° (N) 2,697 6.4 -26.8°
Maximum altitude 19:42:01 85° 82° (E) 961 3.8 -27.9°
Enters shadow 19:43:07 62° 163° (SSE) 1,061 4.0 -28.1°
